Flag for Cote d'Ivoire (Ivory Coast) Weather past 2 weeks in Abidjan, Cote d'Ivoire (Ivory Coast)

Now
77 °F

Passing clouds.


Feels Like: 78 °F
Forecast: 75 / 83 °F
Wind: 5 mph from Southwest

Location: Abidjan Airport

Current Time: Jul 5, 2015 at 2:51:58 AM

Latest Report: Jul 5, 2015 at 2:30 AM


Visibility: 5 mi

Pressure: 29.92 "Hg

Humidity: 94%

Dew point: 75 °F

Location of AbidjanLocation

Historic Weather in Abidjan — Graph

°F

Abidjan temperature yesterday

Maximum temperature yesterday: 82 °F (at 11:30 AM)
Minimum temperature yesterday: 77 °F (at 12:30 AM)
Average temperature yesterday: 79 °F

Past Weeks' High & Low Weather Summary

 TemperatureHumidityPressure
High84 °F (Jun 20, 10:30 AM)100% (Jun 21, 7:00 AM)30.12 "Hg (Jun 21, 7:00 AM)
Low72 °F (Jul 2, 8:30 PM)74% (Jun 20, 10:30 AM)29.89 "Hg (Jul 2, 3:30 PM)
Average79 °F88%29.99 "Hg
* Reported Jun 20 1:00 AM — Jul 5 1:00 AM, Abidjan, Weather by CustomWeather, © 2015

Note: Actual official high and low records may vary slightly from our data, if they occured in-between our weather recording intervals... More about our weather records

Advertising

Abidjan weather history for previous 24 hours

 ConditionsComfort  
Time TempWeatherWind HumidityBarometerVisibility
1:00 AM
Sun, Jul 5
77 °FPassing clouds.3 mph94%29.95 "Hg5 mi
12:30 AM77 °FPassing clouds.5 mph94%29.95 "Hg5 mi
12:00 AM77 °FPassing clouds.6 mph94%29.95 "HgN/A
11:30 PM
Sat, Jul 4
77 °FPassing clouds.7 mph94%29.95 "HgN/A
11:00 PM77 °FPassing clouds.6 mph94%29.95 "HgN/A
10:30 PM77 °FPassing clouds.3 mph94%29.95 "HgN/A
10:00 PM77 °FPassing clouds.6 mph94%N/AN/A
9:30 PM77 °FPassing clouds.7 mph94%29.95 "HgN/A
9:00 PM77 °FPassing clouds.6 mph94%29.95 "HgN/A
8:30 PM77 °FPassing clouds.5 mph94%29.95 "HgN/A
8:00 PM77 °FPassing clouds.6 mph94%29.92 "HgN/A
7:30 PM77 °FPassing clouds.7 mph94%29.92 "HgN/A
7:00 PM77 °FPassing clouds.8 mph94%29.92 "HgN/A
6:30 PM79 °FScattered clouds.8 mph89%29.92 "HgN/A
6:00 PM79 °FScattered clouds.8 mph89%29.92 "HgN/A
5:30 PM81 °FPartly sunny.7 mph84%29.92 "HgN/A
5:00 PM81 °FPartly sunny.7 mph84%29.92 "HgN/A
4:30 PM82 °FPartly sunny.9 mph79%29.92 "HgN/A
4:00 PM82 °FPartly sunny.10 mph79%29.92 "HgN/A
3:30 PM82 °FPartly sunny.12 mph79%29.92 "HgN/A
3:00 PM82 °FPartly sunny.10 mph79%29.92 "HgN/A
2:30 PM82 °FPartly sunny.10 mph79%29.95 "HgN/A
2:00 PM82 °FBroken clouds.10 mph79%29.95 "HgN/A
1:30 PM82 °FBroken clouds.10 mph79%29.95 "HgN/A
1:00 PM82 °FBroken clouds.12 mph79%29.98 "HgN/A
12:30 PM82 °FBroken clouds.10 mph79%29.98 "Hg5 mi
12:00 PM82 °FBroken clouds.12 mph79%29.98 "Hg5 mi
11:30 AM82 °FBroken clouds.12 mph79%29.98 "Hg5 mi
11:00 AM81 °FBroken clouds.10 mph84%29.98 "Hg5 mi
10:30 AM81 °FBroken clouds.10 mph84%29.98 "Hg5 mi
10:00 AM81 °FBroken clouds.10 mph89%29.98 "Hg5 mi
9:30 AM81 °FBroken clouds.9 mph84%29.98 "Hg5 mi
9:00 AM81 °FBroken clouds.9 mph89%29.98 "Hg5 mi
8:30 AM79 °FBroken clouds.7 mph89%29.98 "Hg5 mi
8:00 AM79 °FBroken clouds.5 mph89%29.98 "Hg5 mi
7:30 AM79 °FPartly sunny.5 mph89%29.98 "HgN/A
7:00 AM77 °FPartly sunny.3 mph94%29.95 "HgN/A
6:30 AM77 °FPartly sunny.3 mph94%29.95 "HgN/A
6:00 AM77 °FPartly cloudy.5 mph94%29.95 "HgN/A
5:30 AM77 °FPartly cloudy.3 mph94%29.95 "HgN/A
5:00 AM77 °FPartly cloudy.3 mph94%29.95 "HgN/A
4:30 AM77 °FPartly cloudy.2 mph94%29.92 "HgN/A
4:00 AM77 °FPartly cloudy.2 mph94%29.92 "HgN/A
3:30 AM77 °FPartly cloudy.5 mph94%29.92 "HgN/A
3:00 AM77 °FPartly cloudy.5 mph94%29.92 "HgN/A
2:30 AM77 °FPartly cloudy.6 mph94%29.95 "HgN/A
2:00 AM77 °FPartly cloudy.5 mph94%29.95 "HgN/A
Weather by CustomWeather, © 2015

See weather overviewHow to use our weather pages